Wind_Speed
21 22 24 23 21 19 18 17 16 16 15 14 12 10 12 12 13 15 15 6 6 4 5 5 6 5 3 3 4 1 4 3 6 5 4 7 3 10 7 20 2 4 19 31 30
21 22 24 22 21 19 18 16 15 14 14 12 11 10 10 10 14 17 4 9 11 10 7 8 6 5 2 2 4 3 4 10 9 17 19 19 15 13 6 7 9 21 22 32 29
22 22 23 22 20 18 17 15 14 13 12 10 9 7 6 8 12 6 3 8 11 11 10 7 7 4 3 3 7 6 4 7 14 31 30 15 10 6 19 3 25 28 35 34 31
21 21 21 21 18 17 15 13 12 13 11 9 8 5 5 6 3 3 3 1 1 3 5 6 3 1 4 5 6 2 4 4 8 16 19 12 13 12 8 13 24 27 33 35 32
20 19 20 19 16 15 12 11 12 12 10 7 5 4 5 6 9 5 4 6 5 4 7 8 12 8 4 5 6 2 2 8 10 13 11 12 6 9 8 22 29 32 34 33 32
19 19 19 17 15 12 11 10 12 10 8 6 5 5 5 5 2 6 6 6 7 1 3 12 8 8 7 5 4 6 7 9 8 11 6 6 4 5 7 29 34 36 35 33 31
18 17 17 15 13 11 10 9 10 9 7 6 5 6 8 13 7 4 6 7 4 1 4 2 4 8 9 3 7 12 6 4 3 2 4 13 3 5 21 33 35 35 33 33 30
16 16 14 12 11 9 9 9 10 8 7 6 5 5 9 6 10 6 2 2 3 2 3 1 5 5 5 14 4 5 5 4 3 3 2 3 6 2 27 34 31 26 21 23 22
15 13 11 10 10 10 9 9 10 8 6 4 4 4 9 6 7 4 3 1 1 1 2 3 5 6 5 5 4 7 3 2 4 3 1 3 4 0 25 20 14 13 13 15 14
12 10 9 10 10 10 11 11 7 5 5 5 4 3 7 3 3 5 4 2 0 4 5 5 4 4 4 5 4 4 3 3 5 4 3 1 2 4 15 17 14 14 14 15 12
10 8 8 9 12 14 15 11 5 3 9 8 4 4 3 5 6 7 6 4 3 5 5 6 6 1 3 1 3 3 2 4 1 3 4 2 5 8 9 25 21 22 25 27 25
8 7 10 12 16 17 15 5 3 0 4 17 9 12 12 7 4 6 4 2 3 2 2 6 2 1 6 4 5 6 6 3 1 4 5 5 7 7 9 5 15 26 29 29 27
8 10 14 16 18 17 13 5 1 2 0 4 14 12 7 4 2 5 3 1 3 2 2 4 3 4 6 6 8 5 4 3 3 5 6 4 5 5 6 12 15 21 23 22 20
11 14 16 18 15 15 9 1 2 4 4 4 3 4 7 6 3 4 4 2 3 2 6 4 6 5 6 6 4 3 1 3 3 3 4 2 3 2 1 4 5 13 16 18 19
14 17 17 17 7 11 5 0 2 1 3 3 3 5 5 3 5 1 3 2 3 4 5 2 3 5 6 1 2 4 2 2 2 3 3 4 4 3 7 2 3 6 16 18 17
17 18 20 10 11 11 3 1 3 5 3 3 5 3 4 2 2 3 3 5 6 5 6 3 3 3 2 2 1 2 4 6 4 3 2 4 4 3 5 5 4 8 15 17 16
18 20 18 11 10 8 3 3 5 3 1 4 4 4 3 2 3 3 4 5 3 5 3 5 3 4 3 2 3 6 5 2 2 3 4 5 3 4 5 7 10 14 19 17 13
20 22 14 11 10 8 5 5 1 3 5 3 5 4 4 4 4 3 3 3 5 4 3 4 4 4 5 2 3 2 4 4 5 3 2 5 2 5 2 20 25 23 19 16 11
22 20 14 10 8 8 7 3 5 5 4 6 5 4 2 2 5 5 3 2 0 2 5 4 1 3 2 2 3 0 3 3 6 3 3 2 2 4 4 10 20 25 23 10 8
22 17 13 10 7 9 5 4 4 4 2 6 4 4 5 4 4 4 2 3 1 4 3 5 4 1 2 3 5 5 4 3 4 2 1 3 3 4 8 8 4 6 10 4 4
20 10 13 12 10 8 4 6 5 5 2 4 5 4 5 6 4 3 1 3 4 2 5 3 4 3 2 3 0 4 3 6 5 3 4 1 5 5 9 8 6 8 10 12 12
16 3 14 15 4 2 3 5 4 3 7 4 4 3 6 4 4 3 4 1 4 0 2 2 5 3 1 4 2 2 3 4 4 2 2 3 5 4 5 1 16 18 17 16 16
14 5 14 15 4 2 3 4 1 3 3 2 2 2 2 5 6 3 3 1 2 3 4 2 2 3 6 6 4 2 3 5 5 3 4 4 5 2 8 9 11 18 17 17 14
10 3 4 6 3 7 4 3 1 4 3 4 3 4 5 5 6 4 2 2 2 5 4 3 3 5 6 4 3 4 3 3 5 3 4 6 4 2 3 6 12 16 15 11 7
7 4 8 4 3 4 5 3 3 2 2 2 3 2 5 4 3 4 2 2 4 3 3 3 4 2 4 4 2 1 4 5 6 5 6 5 8 5 9 9 14 12 9 5 2
7 6 6 7 16 6 3 6 6 2 3 0 5 3 2 6 6 8 6 3 3 2 3 4 1 2 1 5 6 3 5 7 5 4 5 3 3 5 13 13 13 11 6 1 2
7 5 6 2 5 6 5 6 8 7 5 2 9 5 5 2 5 9 5 9 7 5 3 3 4 3 3 4 4 6 8 8 4 2 6 6 7 12 6 12 12 8 2 3 1
Wind_Direction
297 297 295 295 293 291 284 277 269 264 263 266 271 271 272 278 283 280 263 232 255 275 257 227 218 217 232 223 220 241 67 122 154 155 10 222 185 179 145 142 178 210 162 159 156
294 295 294 293 291 288 280 272 263 258 257 261 263 265 276 291 288 268 215 237 253 269 261 235 232 218 208 232 200 144 149 196 174 152 193 204 179 134 125 131 89 115 143 153 157
293 294 294 292 289 284 275 267 258 253 250 252 255 257 280 300 304 272 287 245 251 258 259 251 225 195 223 236 204 192 197 176 182 182 191 186 174 112 122 343 150 150 154 162 163
292 293 293 290 285 277 269 259 249 244 244 243 243 248 271 285 262 23 99 30 345 244 228 215 172 163 210 220 206 164 252 162 150 153 156 164 147 140 139 176 164 160 161 166 171
291 291 289 285 280 271 263 248 238 234 234 229 221 241 265 259 259 1 274 296 310 240 215 207 187 194 205 212 136 165 142 76 118 123 143 153 143 163 165 160 164 162 168 174 181
288 289 286 280 271 263 250 234 230 225 217 205 212 237 254 260 285 10 333 296 309 35 256 226 222 223 251 183 105 169 103 109 109 116 130 117 120 126 159 163 166 171 178 184 191
288 288 282 273 263 247 232 223 217 207 187 197 223 241 250 236 304 308 322 321 291 17 51 346 269 219 151 126 128 114 74 42 51 95 131 118 31 164 171 171 173 181 187 190 198
287 283 273 261 245 230 216 204 198 178 181 213 228 247 251 262 283 276 307 316 216 337 5 7 355 94 83 117 60 78 52 95 275 148 4 95 248 190 172 172 182 188 192 198 207
282 275 261 239 223 206 191 180 177 168 198 211 219 231 269 297 255 227 242 322 176 124 58 110 101 60 79 84 33 16 161 168 325 207 93 106 255 18 180 177 163 188 195 204 216
272 260 240 217 201 179 164 160 159 178 196 197 194 260 268 286 244 211 233 262 320 340 95 49 64 77 51 70 197 222 178 204 206 213 53 173 348 88 157 167 139 143 159 166 161
258 237 215 193 178 162 153 144 149 205 210 206 217 230 335 324 248 221 246 238 1 59 48 6 63 57 15 212 192 199 172 166 70 40 96 5 25 38 70 128 125 126 128 124 123
233 201 187 175 167 156 155 158 114 3 269 232 248 251 275 273 291 201 179 121 59 81 29 19 46 57 67 46 80 67 114 81 89 53 92 92 48 55 52 84 136 132 126 122 120
197 179 171 166 162 163 154 103 23 12 123 257 242 253 254 207 183 171 166 114 115 92 96 127 281 66 104 47 81 28 87 50 100 37 38 92 25 34 40 100 126 130 130 131 131
179 169 163 163 171 180 187 136 43 28 66 284 205 236 205 154 87 131 120 148 51 177 121 89 337 88 67 87 94 58 338 64 77 84 179 64 230 117 90 70 82 136 138 134 130
176 165 166 161 171 172 171 137 69 64 103 235 202 178 165 153 146 153 137 83 103 147 92 211 94 82 63 40 97 186 159 170 126 93 76 342 93 288 116 184 192 154 149 145 140
172 168 167 171 161 171 169 67 123 46 225 191 155 167 105 108 116 118 85 73 80 71 53 100 110 83 168 44 27 125 93 46 47 86 59 279 137 252 187 175 152 175 166 153 151
169 170 170 165 159 161 152 128 48 143 145 159 147 139 137 134 77 72 54 27 101 86 50 16 356 333 64 112 13 69 69 8 26 9 206 319 69 228 266 174 161 165 177 174 163
166 166 170 164 158 157 141 58 203 265 203 166 123 99 147 146 30 72 82 64 23 88 118 125 350 5 337 105 172 38 136 149 180 193 262 358 358 278 328 136 159 169 167 170 176
163 167 175 162 159 154 128 88 221 222 188 127 76 100 114 90 116 87 70 122 108 49 129 125 330 321 50 35 119 180 55 157 105 16 71 260 323 24 60 134 158 171 172 190 231
162 167 171 167 160 154 87 220 241 233 151 100 127 159 164 165 93 89 83 334 94 34 176 179 110 281 310 59 26 114 145 65 14 106 221 286 241 209 207 201 187 187 216 225 164
166 157 171 166 154 143 156 226 272 301 118 116 158 154 175 164 110 83 108 357 359 18 64 109 102 266 28 19 209 6 36 55 106 110 154 264 263 215 200 204 167 164 134 131 142
168 109 169 167 98 93 163 204 284 332 45 64 94 99 158 128 78 111 139 112 338 149 72 36 123 97 157 306 312 180 117 117 108 222 73 142 276 57 47 298 145 133 134 132 132
150 114 167 180 141 199 265 274 333 52 38 67 91 74 95 122 99 95 94 5 29 81 147 161 38 67 358 352 349 128 70 93 98 81 194 128 264 126 93 91 126 130 130 124 119
154 96 133 192 167 142 164 255 121 40 63 72 102 81 85 62 31 136 120 17 45 102 102 107 95 151 182 201 178 147 116 114 125 121 188 223 229 149 135 133 130 126 123 116 105
167 189 167 192 227 146 151 186 143 99 67 63 52 83 131 112 80 108 122 132 49 76 74 90 119 104 59 18 5 174 169 184 196 189 170 240 210 198 176 168 156 143 135 130 25
159 150 162 165 165 122 136 196 158 141 133 270 113 22 67 143 173 189 137 162 181 47 71 12 123 71 114 5 3 283 225 243 226 204 242 147 227 163 162 159 152 155 161 231 346
185 182 182 139 118 110 207 182 199 136 50 96 144 99 47 316 121 112 101 118 131 130 108 77 115 85 256 349 335 331 223 194 186 204 149 180 214 157 168 173 174 178 243 298 279
Height
1521 1520 1518 1516 1515 1514 1513 1512 1511 1511 1511 1511 1511 1511 1511 1510 1510 1509 1506 1507 1507 1508 1507 1508 1507 1508 1510 1512 1512 1511 1518 1526 1531 1526 1524 1519 1520 1521 1518 1519 1522 1523 1523 1526 1533
1517 1516 1514 1512 1511 1510 1510 1508 1508 1509 1509 1509 1510 1510 1510 1510 1508 1505 1504 1504 1505 1506 1506 1506 1506 1508 1510 1510 1510 1511 1520 1519 1514 1516 1524 1516 1517 1515 1520 1522 1524 1523 1526 1530 1534
1513 1512 1510 1509 1507 1507 1506 1505 1506 1506 1507 1508 1509 1509 1509 1509 1508 1502 1502 1503 1503 1504 1504 1504 1505 1507 1508 1508 1508 1507 1508 1505 1511 1506 1509 1515 1517 1515 1519 1524 1521 1524 1527 1531 1535
1509 1508 1507 1506 1504 1504 1504 1503 1504 1505 1505 1506 1507 1508 1509 1509 1510 1502 1502 1502 1501 1501 1502 1503 1505 1507 1507 1506 1502 1505 1502 1500 1501 1505 1510 1513 1514 1516 1517 1519 1521 1523 1524 1530 1535
1505 1504 1503 1502 1502 1501 1501 1501 1502 1503 1504 1506 1507 1508 1508 1508 1503 1503 1502 1501 1501 1500 1500 1501 1504 1505 1505 1501 1502 1505 1500 1499 1500 1504 1509 1513 1512 1512 1517 1519 1524 1527 1528 1530 1534
1501 1500 1500 1499 1499 1499 1499 1499 1501 1502 1503 1506 1507 1506 1507 1507 1502 1502 1501 1500 1500 1499 1499 1500 1499 1501 1500 1498 1501 1502 1503 1505 1506 1508 1510 1512 1514 1514 1520 1521 1525 1527 1528 1530 1533
1497 1496 1496 1496 1497 1497 1497 1499 1500 1501 1503 1505 1506 1506 1505 1501 1500 1500 1500 1500 1499 1499 1499 1497 1496 1499 1497 1499 1502 1504 1509 1508 1509 1510 1512 1512 1518 1517 1517 1522 1524 1527 1528 1531 1532
1494 1494 1493 1493 1494 1495 1496 1498 1499 1501 1503 1505 1505 1505 1502 1499 1498 1499 1499 1499 1498 1498 1498 1497 1495 1495 1496 1501 1506 1509 1515 1523 1512 1511 1512 1514 1528 1517 1519 1521 1525 1529 1532 1535 1536
1492 1491 1491 1492 1492 1494 1496 1498 1500 1501 1503 1504 1505 1505 1500 1498 1498 1498 1498 1498 1497 1497 1497 1496 1496 1497 1499 1507 1518 1518 1528 1522 1517 1511 1513 1515 1522 1518 1520 1524 1527 1530 1531 1533 1535
1489 1489 1489 1490 1492 1494 1496 1499 1501 1502 1503 1504 1504 1507 1499 1498 1497 1497 1497 1497 1496 1495 1495 1496 1496 1502 1507 1515 1534 1523 1523 1522 1521 1515 1514 1516 1520 1520 1521 1524 1528 1529 1530 1531 1534
1487 1487 1488 1490 1492 1494 1497 1500 1504 1505 1502 1499 1499 1497 1496 1497 1497 1497 1497 1497 1496 1497 1501 1499 1508 1513 1510 1509 1509 1511 1517 1522 1516 1514 1518 1523 1528 1528 1527 1526 1529 1531 1531 1532 1535
1486 1485 1488 1490 1493 1495 1498 1499 1500 1501 1499 1496 1497 1497 1497 1497 1498 1497 1497 1499 1499 1503 1501 1507 1512 1506 1506 1506 1509 1514 1519 1520 1516 1516 1518 1529 1535 1533 1533 1534 1533 1532 1534 1536 1539
1485 1485 1488 1491 1494 1495 1497 1499 1498 1498 1498 1496 1495 1496 1496 1497 1496 1497 1499 1499 1499 1502 1504 1513 1510 1506 1509 1514 1516 1521 1522 1520 1520 1520 1524 1529 1539 1538 1538 1538 1539 1540 1541 1542 1543
1484 1486 1489 1492 1496 1495 1497 1497 1497 1497 1507 1499 1495 1495 1496 1495 1497 1498 1498 1499 1499 1504 1508 1510 1508 1509 1512 1518 1519 1525 1517 1519 1523 1531 1544 1532 1558 1543 1542 1544 1545 1544 1544 1545 1545
1484 1485 1490 1493 1493 1495 1498 1497 1497 1498 1534 1496 1494 1493 1494 1496 1497 1498 1498 1498 1501 1503 1508 1517 1515 1515 1519 1518 1517 1523 1520 1522 1525 1536 1538 1537 1551 1549 1546 1548 1547 1547 1547 1547 1548
1482 1485 1490 1492 1492 1495 1496 1496 1498 1514 1522 1496 1492 1493 1495 1495 1497 1498 1498 1499 1501 1506 1508 1513 1513 1514 1516 1516 1516 1517 1523 1531 1536 1540 1555 1539 1546 1553 1548 1544 1548 1549 1549 1550 1551
1481 1486 1489 1490 1493 1494 1495 1497 1514 1522 1492 1498 1495 1493 1496 1498 1499 1499 1505 1509 1513 1523 1523 1520 1519 1516 1515 1518 1518 1520 1533 1555 1555 1561 1562 1541 1546 1545 1538 1537 1543 1548 1550 1550 1550
1480 1485 1488 1489 1491 1493 1495 1500 1515 1500 1494 1488 1491 1496 1501 1498 1502 1503 1509 1517 1512 1514 1528 1533 1538 1521 1517 1519 1522 1524 1531 1559 1551 1566 1556 1543 1552 1545 1537 1536 1542 1546 1547 1547 1548
1480 1484 1487 1489 1490 1492 1494 1514 1509 1496 1486 1489 1494 1501 1501 1498 1502 1507 1513 1517 1515 1513 1524 1530 1531 1519 1518 1518 1520 1524 1537 1531 1553 1561 1565 1557 1546 1541 1540 1540 1542 1542 1542 1544 1544
1478 1483 1486 1487 1490 1492 1497 1507 1497 1487 1484 1487 1499 1499 1506 1503 1506 1510 1513 1514 1514 1513 1513 1520 1534 1522 1520 1519 1520 1522 1526 1542 1553 1563 1557 1556 1550 1551 1545 1543 1542 1542 1541 1543 1544
1478 1482 1484 1486 1489 1491 1505 1503 1491 1484 1482 1487 1494 1499 1500 1504 1506 1513 1517 1516 1514 1514 1514 1517 1529 1531 1523 1529 1530 1530 1533 1540 1547 1560 1570 1576 1557 1537 1536 1536 1537 1539 1541 1541 1544
1475 1480 1482 1485 1490 1493 1497 1492 1487 1484 1482 1485 1487 1491 1498 1500 1509 1512 1516 1515 1514 1514 1518 1519 1531 1543 1532 1527 1525 1526 1530 1539 1564 1555 1568 1574 1560 1534 1536 1537 1535 1538 1540 1541 1541
1473 1478 1481 1484 1496 1495 1490 1488 1486 1484 1486 1486 1489 1490 1492 1502 1514 1513 1515 1515 1514 1515 1518 1519 1534 1554 1544 1537 1528 1528 1530 1538 1547 1558 1559 1580 1560 1538 1539 1540 1540 1539 1541 1543 1543
1472 1480 1482 1484 1484 1485 1489 1489 1488 1485 1486 1487 1490 1490 1494 1504 1507 1515 1516 1515 1515 1515 1516 1517 1531 1537 1549 1537 1533 1534 1533 1537 1543 1564 1557 1556 1542 1543 1542 1543 1543 1544 1544 1544 1545
1468 1471 1474 1484 1484 1483 1486 1487 1488 1489 1488 1489 1491 1491 1495 1506 1509 1515 1515 1516 1516 1516 1517 1520 1532 1531 1536 1537 1531 1530 1534 1537 1540 1541 1550 1542 1542 1537 1539 1541 1542 1543 1544 1545 1546
1465 1468 1472 1473 1476 1482 1486 1487 1488 1488 1489 1491 1494 1496 1496 1503 1504 1513 1512 1515 1515 1518 1520 1524 1538 1533 1538 1541 1541 1535 1533 1534 1535 1534 1538 1538 1540 1536 1539 1540 1542 1543 1544 1544 1543
1464 1466 1467 1475 1477 1483 1486 1484 1486 1486 1492 1491 1492 1498 1503 1502 1501 1503 1507 1509 1511 1517 1524 1529 1540 1548 1552 1552 1547 1552 1532 1529 1526 1526 1529 1541 1532 1534 1538 1539 1540 1540 1540 1540 1541